IBE25TH LEGR-LEMD

Flight info

Callsign IBE25TH
Flight time 0h 38m
Altitude 28000
Route VIBAS N865 MORAL
Aircraft A20N/M-SDE2E3FGHIRWXY/LB1

Departure

Time 2026-04-10 10:09
Airport F.G.L. Airport Granada-Jaén Airport (LEGR)

Arrival

Time 2026-04-10 10:47
Airport Adolfo Suárez Madrid–Barajas Airport (LEMD)
Time Latitude Longitude Altitude Speed Heading
2026-04-10 09:56 37.18565 -3.77571 1861 ft 0 kts 269°
2026-04-10 10:03 37.18566 -3.77574 1861 ft 2 kts 283°
2026-04-10 10:03 37.18577 -3.77585 1861 ft 0 kts 326°
2026-04-10 10:04 37.18575 -3.77592 1861 ft 3 kts 291°
2026-04-10 10:04 37.18600 -3.77618 1861 ft 9 kts 352°
2026-04-10 10:04 37.18678 -3.77621 1861 ft 11 kts 338°
2026-04-10 10:05 37.18703 -3.77713 1860 ft 12 kts 272°
2026-04-10 10:05 37.18703 -3.77825 1860 ft 13 kts 267°
2026-04-10 10:05 37.18699 -3.77948 1859 ft 15 kts 268°
2026-04-10 10:05 37.18701 -3.78086 1858 ft 16 kts 271°
2026-04-10 10:06 37.18700 -3.78232 1858 ft 17 kts 268°
2026-04-10 10:06 37.18697 -3.78387 1857 ft 19 kts 269°
2026-04-10 10:06 37.18696 -3.78559 1856 ft 20 kts 268°
2026-04-10 10:06 37.18694 -3.78741 1855 ft 22 kts 270°
2026-04-10 10:07 37.18697 -3.78937 1854 ft 23 kts 269°
2026-04-10 10:07 37.18695 -3.79145 1853 ft 25 kts 270°
2026-04-10 10:07 37.18743 -3.79329 1852 ft 23 kts 340°
2026-04-10 10:07 37.18858 -3.79301 1850 ft 13 kts 67°
2026-04-10 10:08 37.18858 -3.79099 1854 ft 50 kts 89°
2026-04-10 10:08 37.18866 -3.78634 1858 ft 24 kts 89°
2026-04-10 10:08 37.18867 -3.78389 1857 ft 46 kts 90°
2026-04-10 10:08 37.18872 -3.77716 1859 ft 106 kts 89°
2026-04-10 10:09 37.18882 -3.76578 1878 ft 152 kts 91°
2026-04-10 10:09 37.18940 -3.75240 2346 ft 152 kts 92°
2026-04-10 10:09 37.18961 -3.73824 2537 ft 171 kts 92°
2026-04-10 10:09 37.18948 -3.72336 3200 ft 166 kts 96°
2026-04-10 10:10 37.18944 -3.70922 3912 ft 168 kts 96°
2026-04-10 10:10 37.18962 -3.69335 4270 ft 198 kts 91°
2026-04-10 10:10 37.19485 -3.67543 4515 ft 244 kts 55°
2026-04-10 10:10 37.20865 -3.66132 5186 ft 263 kts 37°
2026-04-10 10:11 37.22458 -3.64939 6057 ft 269 kts 36°
2026-04-10 10:11 37.24136 -3.63853 6907 ft 277 kts 24°
2026-04-10 10:11 37.26056 -3.63377 7602 ft 295 kts
2026-04-10 10:11 37.28160 -3.63279 8272 ft 308 kts
2026-04-10 10:12 37.30334 -3.63254 9108 ft 316 kts
2026-04-10 10:12 37.32553 -3.63225 10013 ft 321 kts
2026-04-10 10:12 37.34839 -3.63180 10577 ft 340 kts
2026-04-10 10:12 37.37284 -3.63118 11013 ft 360 kts
2026-04-10 10:13 37.39833 -3.63059 11733 ft 370 kts
2026-04-10 10:13 37.42442 -3.63025 12524 ft 377 kts
2026-04-10 10:13 37.45090 -3.63005 13328 ft 383 kts
2026-04-10 10:13 37.47733 -3.62992 14185 ft 386 kts
2026-04-10 10:14 37.50438 -3.62982 14967 ft 390 kts
2026-04-10 10:14 37.53170 -3.62968 15747 ft 394 kts
2026-04-10 10:14 37.55926 -3.62951 16543 ft 397 kts
2026-04-10 10:14 37.58709 -3.62933 17303 ft 402 kts
2026-04-10 10:15 37.61526 -3.62912 18117 ft 407 kts
2026-04-10 10:15 37.64373 -3.62889 18821 ft 411 kts
2026-04-10 10:15 37.67239 -3.62866 19496 ft 412 kts
2026-04-10 10:15 37.70102 -3.62839 20274 ft 412 kts
2026-04-10 10:16 37.72989 -3.62812 20897 ft 416 kts
2026-04-10 10:16 37.75862 -3.62788 21526 ft 420 kts
2026-04-10 10:16 37.78798 -3.62766 22144 ft 424 kts
2026-04-10 10:16 37.81756 -3.62744 22806 ft 427 kts
2026-04-10 10:17 37.84739 -3.62721 23439 ft 430 kts
2026-04-10 10:17 37.87743 -3.62697 23948 ft 434 kts
2026-04-10 10:17 37.90774 -3.62672 24392 ft 438 kts
2026-04-10 10:17 37.93838 -3.62647 24829 ft 442 kts
2026-04-10 10:18 37.96927 -3.62621 25284 ft 446 kts
2026-04-10 10:18 38.00026 -3.62596 25635 ft 438 kts
2026-04-10 10:18 38.03021 -3.62576 25569 ft 424 kts
2026-04-10 10:18 38.05940 -3.62556 25429 ft 414 kts
2026-04-10 10:19 38.08783 -3.62535 25285 ft 403 kts
2026-04-10 10:19 38.11559 -3.62513 25144 ft 393 kts
2026-04-10 10:19 38.14262 -3.62490 25019 ft 383 kts
2026-04-10 10:19 38.16890 -3.62336 24921 ft 372 kts
2026-04-10 10:20 38.19411 -3.62101 24797 ft 362 kts
2026-04-10 10:20 38.21897 -3.61855 24680 ft 353 kts
2026-04-10 10:20 38.24311 -3.61617 24568 ft 344 kts
2026-04-10 10:20 38.26670 -3.61385 24456 ft 336 kts
2026-04-10 10:21 38.29012 -3.61154 24566 ft 342 kts
2026-04-10 10:21 38.31435 -3.60913 24746 ft 356 kts
2026-04-10 10:21 38.33949 -3.60665 24920 ft 369 kts
2026-04-10 10:21 38.36571 -3.60410 25074 ft 383 kts
2026-04-10 10:22 38.39273 -3.60147 25265 ft 395 kts
2026-04-10 10:22 38.42025 -3.59880 25458 ft 408 kts
2026-04-10 10:22 38.44895 -3.59601 25636 ft 420 kts
2026-04-10 10:22 38.47844 -3.59316 25796 ft 431 kts
2026-04-10 10:23 38.50877 -3.59022 25978 ft 442 kts
2026-04-10 10:23 38.53997 -3.58718 26037 ft 449 kts
2026-04-10 10:23 38.57129 -3.58415 26040 ft 449 kts
2026-04-10 10:23 38.60241 -3.58114 26039 ft 448 kts
2026-04-10 10:24 38.63315 -3.57815 26044 ft 447 kts
2026-04-10 10:24 38.66421 -3.57512 26049 ft 447 kts
2026-04-10 10:24 38.69520 -3.57209 26047 ft 446 kts
2026-04-10 10:24 38.72620 -3.56906 26048 ft 446 kts
2026-04-10 10:25 38.75717 -3.56603 26047 ft 446 kts
2026-04-10 10:25 38.78815 -3.56300 26052 ft 446 kts
2026-04-10 10:25 38.81878 -3.56000 26055 ft 446 kts
2026-04-10 10:25 38.84981 -3.55695 26045 ft 446 kts
2026-04-10 10:26 38.88080 -3.55391 26051 ft 447 kts
2026-04-10 10:26 38.91179 -3.55087 26055 ft 447 kts
2026-04-10 10:26 38.94278 -3.54782 26054 ft 447 kts
2026-04-10 10:26 38.97379 -3.54562 26054 ft 447 kts 360°
2026-04-10 10:27 39.00449 -3.55142 26060 ft 447 kts 342°
2026-04-10 10:27 39.03269 -3.56802 26059 ft 445 kts 329°
2026-04-10 10:27 39.05912 -3.58874 26055 ft 445 kts 326°
2026-04-10 10:27 39.08526 -3.61017 26064 ft 446 kts 326°
2026-04-10 10:28 39.11141 -3.63163 26073 ft 445 kts 326°
2026-04-10 10:28 39.13759 -3.65305 26079 ft 445 kts 326°
2026-04-10 10:28 39.16380 -3.67441 26084 ft 445 kts 326°
2026-04-10 10:28 39.18972 -3.69551 26068 ft 446 kts 326°
2026-04-10 10:29 39.21586 -3.71678 25868 ft 442 kts 326°
2026-04-10 10:29 39.24196 -3.73802 25226 ft 444 kts 326°
2026-04-10 10:29 39.26805 -3.75926 24771 ft 440 kts 326°
2026-04-10 10:29 39.29393 -3.78033 24232 ft 439 kts 326°
2026-04-10 10:30 39.31951 -3.80118 23940 ft 431 kts 326°
2026-04-10 10:30 39.34487 -3.82187 23371 ft 430 kts 326°
2026-04-10 10:30 39.37019 -3.84255 22651 ft 432 kts 326°
2026-04-10 10:30 39.39542 -3.86317 22215 ft 426 kts 326°
2026-04-10 10:31 39.42018 -3.88342 21699 ft 424 kts 326°
2026-04-10 10:31 39.44499 -3.90374 21204 ft 420 kts 326°
2026-04-10 10:31 39.46959 -3.92390 20687 ft 417 kts 326°
2026-04-10 10:31 39.49397 -3.94391 20197 ft 414 kts 326°
2026-04-10 10:32 39.51817 -3.96377 19758 ft 409 kts 327°
2026-04-10 10:32 39.54205 -3.98338 19353 ft 404 kts 327°
2026-04-10 10:32 39.56575 -4.00286 18821 ft 403 kts 327°
2026-04-10 10:32 39.58933 -4.02227 18398 ft 399 kts 327°
2026-04-10 10:33 39.61262 -4.04144 17948 ft 394 kts 327°
2026-04-10 10:33 39.63558 -4.06036 17510 ft 389 kts 326°
2026-04-10 10:33 39.65919 -4.07713 17074 ft 384 kts 340°
2026-04-10 10:33 39.68489 -4.08272 16677 ft 377 kts
2026-04-10 10:34 39.70991 -4.07500 16277 ft 366 kts 29°
2026-04-10 10:34 39.72983 -4.05572 15903 ft 354 kts 50°
2026-04-10 10:34 39.74620 -4.03194 15522 ft 354 kts 53°
2026-04-10 10:34 39.76244 -4.00781 15159 ft 355 kts 52°
2026-04-10 10:35 39.77342 -3.99202 14911 ft 355 kts 51°
2026-04-10 10:35 39.79025 -3.96851 14549 ft 354 kts 50°
2026-04-10 10:35 39.80725 -3.94529 14178 ft 354 kts 50°
2026-04-10 10:35 39.82432 -3.92229 13691 ft 354 kts 49°
2026-04-10 10:36 39.84149 -3.89931 13130 ft 354 kts 49°
2026-04-10 10:36 39.85866 -3.87643 12667 ft 351 kts 49°
2026-04-10 10:36 39.87559 -3.85391 12307 ft 345 kts 49°
2026-04-10 10:36 39.89228 -3.83169 11958 ft 341 kts 49°
2026-04-10 10:37 39.90883 -3.80965 11598 ft 339 kts 48°
2026-04-10 10:37 39.92527 -3.78775 11250 ft 337 kts 48°
2026-04-10 10:37 39.94143 -3.76621 10899 ft 335 kts 48°
2026-04-10 10:37 39.95764 -3.74459 10491 ft 332 kts 48°
2026-04-10 10:38 39.97368 -3.72319 10090 ft 329 kts 47°
2026-04-10 10:38 39.98956 -3.70198 9619 ft 326 kts 47°
2026-04-10 10:38 40.00537 -3.68087 9178 ft 322 kts 48°
2026-04-10 10:38 40.02095 -3.66005 8744 ft 319 kts 48°
2026-04-10 10:39 40.03636 -3.63943 8310 ft 316 kts 48°
2026-04-10 10:39 40.05164 -3.61898 7884 ft 313 kts 48°
2026-04-10 10:39 40.06679 -3.59868 7469 ft 310 kts 49°
2026-04-10 10:39 40.08173 -3.57865 7060 ft 306 kts 49°
2026-04-10 10:40 40.09649 -3.55885 6652 ft 303 kts 49°
2026-04-10 10:40 40.11107 -3.53928 6240 ft 299 kts 49°
2026-04-10 10:40 40.12532 -3.52013 6010 ft 296 kts 50°
2026-04-10 10:40 40.13990 -3.50052 5978 ft 298 kts 50°
2026-04-10 10:41 40.15436 -3.48105 5974 ft 299 kts 50°
2026-04-10 10:41 40.16882 -3.46199 5979 ft 300 kts 47°
2026-04-10 10:41 40.18419 -3.44334 5977 ft 301 kts 46°
2026-04-10 10:41 40.19974 -3.42494 5974 ft 302 kts 45°
2026-04-10 10:42 40.21675 -3.40849 5980 ft 307 kts 35°
2026-04-10 10:42 40.23485 -3.39478 5979 ft 292 kts 32°
2026-04-10 10:42 40.25318 -3.38499 5975 ft 279 kts 11°
2026-04-10 10:42 40.27208 -3.38507 5983 ft 266 kts 355°
2026-04-10 10:43 40.29014 -3.38820 6019 ft 260 kts 351°
2026-04-10 10:43 40.30737 -3.39559 5871 ft 263 kts 332°
2026-04-10 10:43 40.32205 -3.40904 5521 ft 258 kts 319°
2026-04-10 10:43 40.33561 -3.42420 5119 ft 256 kts 319°
2026-04-10 10:44 40.34936 -3.43866 4746 ft 249 kts 323°
2026-04-10 10:44 40.36274 -3.45205 4410 ft 234 kts 323°
2026-04-10 10:44 40.37521 -3.46470 4117 ft 220 kts 322°
2026-04-10 10:44 40.38697 -3.47666 3846 ft 208 kts 323°
2026-04-10 10:45 40.39814 -3.48800 3575 ft 199 kts 323°
2026-04-10 10:45 40.40889 -3.49889 3317 ft 191 kts 324°
2026-04-10 10:45 40.41906 -3.50924 3081 ft 179 kts 325°
2026-04-10 10:45 40.42847 -3.51879 2858 ft 164 kts 323°
2026-04-10 10:46 40.43717 -3.52771 2565 ft 153 kts 322°
2026-04-10 10:46 40.44543 -3.53619 2350 ft 150 kts 324°
2026-04-10 10:46 40.45361 -3.54435 2194 ft 150 kts 325°
2026-04-10 10:46 40.46187 -3.55265 2040 ft 148 kts 324°
2026-04-10 10:47 40.46992 -3.56081 1984 ft 136 kts 323°
2026-04-10 10:47 40.47532 -3.56634 1985 ft 69 kts 323°
2026-04-10 10:47 40.47793 -3.57038 1985 ft 33 kts 291°
2026-04-10 10:47 40.47742 -3.57107 1986 ft 0 kts 155°
2026-04-10 10:48 40.47743 -3.57107 1986 ft 0 kts 155°
2026-04-10 10:48 40.47742 -3.57107 1986 ft 0 kts 155°
2026-04-10 10:48 40.47739 -3.57104 1986 ft 3 kts 147°
2026-04-10 10:48 40.47709 -3.57074 1985 ft 8 kts 145°
2026-04-10 10:49 40.47646 -3.57066 1985 ft 11 kts 219°
2026-04-10 10:49 40.47669 -3.57161 1983 ft 14 kts 324°
2026-04-10 10:49 40.47761 -3.57250 1983 ft 19 kts 324°
2026-04-10 10:49 40.47872 -3.57364 1983 ft 22 kts 322°
2026-04-10 10:50 40.48005 -3.57500 1987 ft 26 kts 319°
2026-04-10 10:50 40.48154 -3.57655 1985 ft 29 kts 323°
2026-04-10 10:50 40.48321 -3.57824 1985 ft 31 kts 325°
2026-04-10 10:50 40.48485 -3.57978 1986 ft 25 kts 311°
2026-04-10 10:51 40.48512 -3.58209 1983 ft 28 kts 270°
2026-04-10 10:51 40.48510 -3.58477 1986 ft 31 kts 269°
2026-04-10 10:51 40.48511 -3.58773 1985 ft 34 kts 272°
2026-04-10 10:51 40.48511 -3.59082 1983 ft 24 kts 269°
2026-04-10 10:52 40.48578 -3.59238 1984 ft 22 kts
2026-04-10 10:52 40.48676 -3.59217 1984 ft 12 kts 64°
2026-04-10 10:52 40.48679 -3.59182 1983 ft 0 kts 93°